Location: Blackwater Beach
(38.5801°N, 75.1577°W)
Time: 10:06:30
(UTC+00:00)

Cosmos 2297 Rocket - Pass Details

Date: 13 February 2026
Orbit: 838 x 843 km, 71.0° (Epoch: 11 March)

Event Time Altitude Azimuth Distance (km) Brightness Sun altitude
Rises 22:55:58 0° 194° (SSW) 3,380 5.7 -4.5°
Reaches altitude 10° 22:58:25 10° 192° (SSW) 2,450 5.0 -5.0°
Maximum altitude 23:04:00 70° 110° (ESE) 896 2.2 -6.1°
Drops below altitude 10° 23:09:37 10° 27° (NNE) 2,467 4.3 -7.1°
Sets 23:12:05 0° 26° (NNE) 3,406 5.0 -7.6°
